• Join FlightAware (Why Join?)
  • Login
  • US Flag 
10:46AM EST


 

Airport Tracker/Info


-or-


 

Live Flight TrackerFlight Track Log ✈ N775NC ✈ 12-Aug-2013 ✈ KATL - KHSV

Flight Track Log - Related Links

Times and Time Zones

All times are in EDT time to prevent confusion due to time zone crossing. See the N775NC flight status page for this flight to view local times or setup timezone preferences in your user account.

Time Position Orientation Groundspeed Altitude Reporting Facility
EDT Latitude Longitude Course Direction KTS MPH feet Rate Location/Type
10:54AM 33.6500 -84.4833 292° West 196 226 2,600  Level Atlanta TRACON
10:55AM 33.6833 -84.5667 296° West 266 306 4,900 2,331 Climbing Atlanta TRACON
10:56AM 33.6833 -84.6500 270° West 277 319 7,300 1,942 Climbing Atlanta TRACON
10:58AM 33.6973 -84.9808 280° West  Level FlightAware Approximate
10:58AM 33.6978 -84.8378 275° West 296 341 10,500  Level Atlanta Center
10:59AM 33.7133 -85.0930 280° West  Level FlightAware Approximate
10:59AM 33.7031 -84.9553 273° West 336 387 12,800  Level Atlanta Center
11:00AM 33.7445 -85.2002 292° West  Level FlightAware Approximate
11:00AM 33.7128 -85.0753 276° West 356 410 14,800  Level Atlanta Center
11:01AM 33.7242 -85.1928 277° West 366 421 16,800 1,700 Climbing Atlanta Center
11:02AM 33.7458 -85.3153 282° West 371 427 18,200 1,500 Climbing Atlanta Center
11:03AM 33.7717 -85.4383 284° West 371 427 19,800 1,450 Climbing Atlanta Center
11:04AM 33.8014 -85.5686 285° West 390 449 21,100 1,100 Climbing Atlanta Center
11:05AM 33.8394 -85.6994 289° West 410 472 22,000 450 Climbing Atlanta Center
11:06AM 33.8900 -85.8231 296° West 420 483 22,000 -857 Level Atlanta Center
11:08AM 33.9828 -86.0964 292° West 448 516 19,400 -1,945 Descending Memphis Center
11:09AM 34.0711 -86.1847 320° Northwest 415 478 16,100 -3,150 Descending Memphis Center
11:10AM 34.1794 -86.2422 336° Northwest 403 464 13,100 -2,500 Descending Memphis Center
11:11AM 34.2714 -86.3031 331° Northwest 403 464 11,100 -1,050 Descending Memphis Center
11:12AM 34.3561 -86.3444 338° Northwest 375 432 11,000 -200 Descending Memphis Center
11:13AM 34.4306 -86.3861 335° Northwest 329 379 10,700 -1,050 Descending Memphis Center
11:14AM 34.4989 -86.4408 327° Northwest 297 342 8,900 -1,750 Descending Memphis Center
11:15AM 34.5653 -86.4908 328° Northwest 286 329 7,200 -1,438 Descending Memphis Center
11:16AM 34.6336 -86.5408 329° Northwest 286 329 6,000 -600 Descending Memphis Center
11:17AM 34.6975 -86.5808 333° Northwest 281 323 6,000 -504 Level Memphis Center
11:18AM 34.7569 -86.6236 329° Northwest 261 300 5,000 -800 Descending Memphis Center
11:19AM 34.8167 -86.6614 333° Northwest 251 289 4,400 -900 Descending Memphis Center
11:20AM 34.8308 -86.7217 286° West 203 234 3,200 -700 Descending Memphis Center
11:21AM 34.7925 -86.7636 222° Southwest 151 174 3,000 -500 Descending Memphis Center
11:22AM 34.7361 -86.7661 182° South 148 170 2,200 -800 Descending Memphis Center
11:23AM 34.6903 -86.7681 182° South 162 186 1,400 -700 Descending Memphis Center
11:24AM 34.6550 -86.7669 179° South 162 186 800 -600 Descending Memphis Center